Dewpoint
37 37 38 39 39 41 41 42 44 45 45 46 47 48 51 54 56 58 59 59 60 60 60 60 60 61 61 60 61 61 60 61 60 60 61 60 60 60 60 60 60 60
34 35 36 37 38 39 39 41 41 40 41 42 43 44 45 47 49 52 55 57 58 59 59 60 60 60 60 60 60 60 60 60 60 61 60 60 60 60 60 60 60 60
33 33 34 34 35 36 37 39 40 40 40 41 42 42 45 46 47 48 49 52 53 55 57 58 59 59 59 59 59 59 59 59 59 60 60 60 60 60 60 60 60 60
32 32 32 32 34 34 35 36 38 38 40 40 40 41 42 43 44 45 47 47 49 50 52 55 57 57 58 58 58 57 58 58 58 58 59 58 58 59 59 59 59 60
30 31 31 32 32 33 34 35 36 38 38 39 39 40 40 41 41 42 43 44 46 47 48 50 51 53 55 56 56 56 56 56 57 57 56 56 56 57 57 58 58 58
29 30 30 30 31 32 33 33 35 37 37 38 38 38 39 40 40 40 41 41 42 44 46 47 49 50 52 53 54 54 55 55 55 56 56 55 55 56 57 57 56 56
28 29 29 29 30 31 32 32 33 35 36 36 37 38 38 39 39 39 40 40 40 41 42 43 45 47 49 50 51 52 53 54 55 55 55 54 54 55 55 56 55 54
27 28 28 28 29 29 31 31 32 33 34 35 35 36 37 37 38 39 39 39 40 40 39 40 42 43 45 47 48 49 51 54 54 52 52 52 53 53 53 54 54 53
27 27 27 27 28 28 29 30 31 32 33 33 34 34 35 36 37 37 38 38 38 38 38 39 40 40 42 44 45 46 47 49 51 51 50 50 51 51 51 52 53 52
25 26 26 26 26 27 28 29 30 31 31 32 33 34 34 35 36 36 37 37 37 37 37 38 39 39 39 40 42 44 45 46 46 48 49 49 50 50 51 52 51 51
24 24 25 25 25 25 26 28 29 29 30 30 32 32 33 34 35 35 35 35 36 36 37 37 38 38 38 39 40 41 42 44 45 46 47 48 49 49 47 50 50 50
23 23 23 23 24 24 25 27 27 28 29 30 30 31 32 33 34 34 34 34 35 35 36 36 37 37 38 39 40 40 41 42 43 44 45 46 47 48 48 48 49 48
22 22 23 23 22 22 23 25 26 27 28 28 29 30 31 32 33 33 33 33 34 35 35 35 36 36 38 39 39 39 38 39 40 41 43 43 45 45 46 46 46 47
21 22 22 21 21 21 22 23 24 25 26 27 28 29 30 31 32 32 32 32 33 33 34 34 35 35 37 37 37 37 37 37 38 38 39 40 42 42 44 44 44 45
20 21 21 20 19 19 20 21 23 23 24 26 27 28 30 31 31 32 31 31 32 32 32 33 35 36 37 36 35 35 36 36 37 37 38 39 39 40 40 41 42 42
20 19 18 17 17 17 19 20 21 21 23 24 25 27 28 30 31 31 31 31 31 31 32 33 33 34 34 34 35 34 35 36 36 36 37 37 38 38 38 39 40 41
18 18 16 15 15 16 17 18 19 20 21 23 24 26 27 29 30 30 30 30 30 30 30 31 32 32 33 34 34 35 34 34 34 34 35 36 37 38 38 38 39 39
17 15 13 13 13 14 15 17 18 18 20 22 24 25 26 28 29 29 29 29 29 29 29 30 30 31 33 33 34 34 34 33 33 34 35 35 36 37 37 37 38 38
15 13 12 11 12 13 14 16 17 18 19 21 23 25 26 27 27 28 28 29 29 28 28 28 28 31 32 33 33 33 33 33 33 33 34 34 35 35 36 36 36 37
12 11 10 10 11 12 13 14 16 17 18 21 23 24 25 26 26 27 27 28 28 28 27 27 27 30 32 32 32 32 33 33 32 33 33 34 34 34 35 35 35 36
11 9 9 10 10 11 11 13 14 16 19 20 22 23 23 24 25 25 26 27 27 27 27 27 27 30 31 31 32 32 33 33 32 33 33 33 33 34 34 34 35 35
9 8 8 8 9 10 11 12 14 15 18 20 22 22 22 24 24 24 23 25 26 27 27 26 26 28 29 30 31 32 32 31 31 31 31 32 32 33 33 33 34 34
8 7 7 7 8 9 10 11 13 15 17 19 21 21 22 22 22 22 23 24 25 26 26 26 26 27 29 30 31 31 31 29 29 29 30 30 31 32 32 32 33 33
7 6 6 7 8 8 10 11 13 15 16 19 20 20 20 21 22 23 23 24 24 25 26 26 26 27 29 29 30 31 30 28 28 28 28 29 29 30 31 31 31 31
5 5 6 7 8 8 10 11 12 14 17 17 18 18 19 20 21 22 23 24 24 25 28 28 27 27 29 29 30 30 29 27 27 26 26 27 28 28 29 29 30 30
4 5 6 7 7 8 10 11 13 14 15 16 16 16 17 18 20 21 21 22 23 24 26 27 27 26 27 29 29 29 29 27 26 26 26 26 26 26 27 27 28 29